Temp
14 14 14 15 16 16 16 16 16 17 17 17 18 18 18 18 18 18 19 18 17 18 18 17 18 18 18 18 18 18 18 18 19 19 19 19 19 18 18 18 18 17 16 16 16 16 16 16 15 15 15 15 15 15 14 14 14 14 14 13 13 13 13
14 14 14 15 15 16 16 16 16 17 17 17 18 18 18 17 17 18 19 18 18 19 18 18 18 18 18 18 18 19 18 18 18 19 19 19 19 19 18 18 18 17 17 17 16 16 16 16 15 15 15 15 15 15 15 14 14 14 14 14 13 13 13
14 14 14 15 15 15 16 17 17 17 17 17 17 17 17 17 16 17 19 19 19 19 19 19 19 19 19 19 19 19 19 18 18 19 19 19 19 19 18 18 18 17 17 17 17 16 16 16 15 15 15 15 15 15 14 14 14 14 14 14 14 13 13
14 14 14 15 15 15 15 16 16 16 17 17 17 17 17 17 17 17 18 19 19 19 19 19 19 19 19 19 19 19 19 19 18 19 19 19 19 19 19 18 18 18 18 17 17 16 16 16 15 15 15 14 14 14 14 14 14 14 14 14 14 13 13
14 14 14 15 16 15 15 16 16 16 17 17 17 17 18 17 18 17 17 18 19 19 18 18 19 18 18 18 19 19 19 19 19 19 19 19 19 19 19 18 18 18 18 17 17 16 16 16 15 15 15 14 14 14 14 14 14 14 14 14 14 13 13
15 15 15 14 15 16 16 16 16 16 17 17 17 17 18 18 18 18 18 18 19 20 19 18 18 18 18 18 19 19 19 19 19 19 19 19 19 19 19 18 18 18 17 17 17 16 16 16 15 15 15 14 14 14 14 14 14 14 14 14 14 13 13
15 15 15 15 15 15 16 16 16 16 17 17 17 17 17 18 18 18 18 18 19 19 19 18 17 18 18 18 19 19 19 19 19 18 18 19 19 19 19 19 18 18 17 17 17 17 17 16 16 15 15 15 14 14 14 14 14 14 14 14 14 13 13
15 15 15 15 15 15 16 16 16 16 16 16 17 17 17 18 19 18 18 18 19 19 18 17 18 18 18 18 18 18 18 18 18 18 18 19 19 19 19 19 18 18 18 17 17 17 17 17 16 15 15 15 15 14 14 14 14 14 14 13 13 13 13
14 14 15 15 15 15 15 16 16 16 17 16 17 17 17 17 18 18 18 18 18 18 18 17 18 18 18 18 18 18 18 18 18 18 18 19 19 19 19 19 18 18 18 18 18 18 18 17 17 16 15 15 15 14 14 14 14 14 14 13 13 13 13
13 14 15 16 15 15 15 15 16 16 17 17 17 17 17 17 18 18 18 19 18 18 18 17 18 17 17 18 18 18 18 18 19 18 19 19 19 19 19 19 19 18 18 18 18 18 18 17 17 17 16 16 15 15 15 14 14 14 14 14 13 13 13
14 14 15 15 15 15 15 15 15 16 16 17 17 17 17 17 18 17 17 18 18 18 18 18 18 17 17 18 18 18 18 18 18 19 19 19 19 19 19 19 19 18 18 18 18 18 18 17 17 17 17 16 16 15 15 14 14 14 14 14 14 13 13
14 14 15 15 15 15 15 15 15 15 16 16 16 17 17 17 17 17 17 17 17 18 18 18 18 17 17 17 18 18 18 18 18 18 19 19 19 19 19 19 19 18 18 18 18 18 18 17 17 17 17 17 16 16 15 15 14 14 14 14 14 14 14
13 14 14 15 15 15 15 15 15 16 16 16 16 17 17 17 17 17 17 17 17 17 18 18 18 17 17 17 17 17 18 18 18 18 18 19 19 19 19 19 19 18 18 18 18 18 18 17 17 17 17 17 16 16 15 15 14 14 14 14 14 14 13
13 13 14 14 14 15 15 15 15 15 16 16 16 16 16 16 17 17 17 17 16 17 17 17 17 17 17 17 17 17 18 17 17 18 18 19 19 19 19 19 18 18 18 18 18 18 18 18 18 17 17 17 16 16 15 15 14 14 14 14 14 14 14
12 12 13 13 14 15 15 15 15 15 15 16 16 16 16 16 16 16 17 17 16 17 17 17 17 17 17 17 18 17 17 17 17 18 18 18 18 19 19 19 18 18 18 18 18 18 18 18 18 17 17 17 16 15 15 14 14 14 14 14 14 14 14
12 12 13 13 14 14 15 15 15 15 15 16 16 16 16 16 16 16 16 16 17 17 16 16 17 17 17 17 17 17 17 17 17 18 18 18 18 19 19 19 19 18 18 18 18 18 18 18 18 17 17 16 16 15 15 15 14 14 14 14 14 14 14
12 12 13 13 13 14 14 15 15 15 15 15 15 16 16 16 16 16 16 16 16 16 16 16 17 17 16 17 17 17 17 17 18 18 18 18 18 18 19 19 19 18 18 18 18 18 18 18 17 17 17 16 16 15 15 15 15 15 14 14 14 14 14
11 12 12 13 12 13 14 15 15 15 15 15 15 16 16 16 16 16 16 16 16 16 16 16 16 16 16 16 17 17 17 17 18 18 18 18 18 18 19 19 19 18 18 18 18 18 18 17 17 17 17 16 16 15 15 15 15 15 15 14 15 15 14
11 11 11 11 11 12 14 15 15 15 15 15 15 15 16 16 16 16 16 16 16 16 16 16 16 16 16 16 17 17 17 17 18 18 18 18 18 18 18 19 19 18 18 18 18 18 18 17 17 17 16 16 16 15 15 15 15 15 15 15 15 14 14
11 11 11 11 11 13 13 14 14 14 15 15 15 15 16 16 16 16 15 15 15 16 15 15 15 16 16 16 16 17 17 17 18 18 18 18 18 18 18 18 19 18 18 18 18 18 18 17 17 17 16 16 15 15 15 15 15 15 15 15 14 14 14
10 10 11 11 11 12 13 13 13 13 14 14 14 15 15 15 15 15 15 15 15 15 15 15 15 16 16 16 16 17 17 17 18 18 18 18 18 18 18 18 18 19 19 19 18 18 18 17 17 17 16 16 16 15 15 15 15 15 15 15 15 14 14
9 10 10 10 10 11 12 12 12 12 13 13 14 14 15 15 15 15 15 15 15 15 15 15 15 15 15 16 16 17 17 18 18 18 18 18 18 18 18 18 18 19 19 18 18 18 17 17 17 17 16 16 16 16 16 16 15 15 15 15 15 14 14
9 9 10 10 10 11 11 11 11 12 13 13 13 13 14 14 14 14 14 14 14 15 15 15 15 15 15 16 16 17 17 18 18 18 18 18 18 18 18 18 18 19 19 18 18 18 17 17 17 17 16 16 16 16 15 15 15 15 15 15 14 14 14
9 9 9 9 9 10 10 10 11 11 12 12 13 13 14 14 14 14 14 14 14 15 15 15 15 15 15 15 16 17 17 17 17 18 18 18 18 18 19 18 18 18 18 18 18 17 17 17 17 17 16 16 16 15 15 15 15 15 15 14 14 14 14
9 9 9 9 9 9 9 10 10 10 11 11 12 12 13 14 14 14 14 14 15 15 15 15 15 15 15 16 16 17 17 17 18 18 18 18 18 18 18 18 18 18 18 17 17 17 17 17 16 16 16 16 16 15 15 15 15 15 15 14 13 13 13
8 8 8 9 9 8 9 9 10 10 10 11 12 12 13 13 14 14 14 15 15 15 15 15 15 15 15 16 16 17 17 17 17 17 18 18 18 18 18 18 17 17 17 17 17 17 16 16 16 16 16 15 15 14 14 14 14 15 14 14 13 13 12
8 8 8 8 7 8 8 9 9 9 9 10 11 11 12 12 12 13 13 14 15 15 15 15 14 15 15 16 16 16 16 16 17 17 17 17 17 17 17 17 16 16 17 17 16 16 16 16 16 15 15 14 14 14 14 14 14 14 13 13 13 13 13
8 8 8 7 7 8 8 8 8 9 9 9 10 10 11 11 11 11 12 13 14 14 14 14 14 14 15 15 15 15 15 15 15 15 15 15 15 15 15 15 15 15 15 15 15 15 15 15 15 15 14 14 14 14 14 13 13 13 13 13 13 13 13
8 9 8 8 8 9 8 8 8 8 8 9 9 9 10 10 10 10 11 12 12 12 12 13 14 14 14 13 13 14 14 14 14 14 14 14 14 14 14 14 14 14 14 14 14 14 14 14 14 14 14 14 13 13 13 13 12 12 12 13 13 13 13
9 8 8 8 8 8 8 7 7 7 8 8 9 9 9 10 10 10 10 11 11 11 11 12 13 13 12 12 12 13 14 14 14 14 14 14 14 14 14 13 13 13 13 13 13 13 13 13 13 13 13 13 13 13 13 13 12 12 12 12 13 12 12
8 7 8 8 7 7 7 6 6 7 7 7 8 8 9 9 9 9 9 9 9 9 10 11 12 12 11 12 12 12 12 12 12 12 13 13 13 13 12 12 12 12 12 12 12 12 12 12 12 12 12 12 12 12 13 13 13 12 12 12 12 12 12
7 6 7 7 7 6 6 6 6 6 7 7 7 8 8 8 8 9 8 8 8 9 9 10 11 11 11 11 11 11 11 11 11 11 12 12 12 12 12 12 12 12 12 12 12 12 12 12 12 12 12 12 13 13 13 13 12 12 12 12 12 12 12
6 6 6 6 6 6 6 6 6 7 7 7 7 7 7 8 8 8 8 8 8 9 9 9 10 10 10 11 11 10 10 10 10 10 10 10 10 11 11 11 11 11 11 12 12 12 12 12 12 12 12 13 13 13 12 12 12 12 12 12 12 12 11
6 6 5 5 6 6 5 5 5 6 7 7 7 7 8 8 8 8 8 8 8 9 9 9 9 9 10 10 10 10 10 10 10 10 10 10 10 10 11 11 11 11 11 12 12 12 12 12 12 12 12 12 12 13 13 13 12 12 12 12 11 11 11
5 5 5 5 6 6 5 4 4 5 6 7 7 7 7 8 8 8 8 8 8 9 9 9 9 9 9 9 9 10 10 10 10 10 10 10 10 10 10 11 11 11 11 11 11 11 12 12 12 12 12 12 12 12 12 12 12 12 11 11 11 11 10
5 5 5 5 6 5 4 4 3 4 5 6 6 6 7 7 7 7 8 8 8 8 9 9 9 9 9 9 10 10 10 10 10 10 10 10 10 10 10 10 11 11 11 11 11 11 11 11 11 11 11 12 12 12 12 11 11 11 11 11 10 10 10
4 5 5 6 5 5 4 4 4 4 4 5 5 5 5 6 6 6 7 7 7 7 8 8 8 9 9 9 9 9 9 9 9 10 10 10 10 10 10 10 10 10 10 10 10 10 11 10 10 10 10 11 11 11 11 10 10 10 10 10 10 9 9
Height
3106 3108 3111 3116 3118 3119 3122 3125 3123 3124 3130 3133 3130 3128 3130 3131 3128 3125 3127 3131 3133 3134 3133 3134 3137 3139 3140 3141 3143 3144 3144 3144 3145 3146 3146 3147 3148 3149 3149 3150 3152 3154 3156 3158 3160 3161 3162 3163 3165 3166 3168 3170 3172 3174 3176 3178 3180 3181 3182 3183 3184 3185 3186
3103 3107 3110 3112 3114 3116 3118 3117 3119 3125 3130 3130 3127 3125 3126 3128 3126 3122 3123 3126 3128 3128 3128 3130 3133 3135 3136 3138 3140 3141 3141 3141 3141 3143 3144 3145 3146 3146 3147 3148 3149 3151 3153 3154 3156 3158 3159 3161 3162 3164 3166 3168 3170 3172 3174 3176 3177 3178 3180 3181 3182 3183 3184
3101 3105 3108 3109 3110 3112 3114 3115 3118 3122 3122 3122 3123 3121 3119 3121 3121 3120 3120 3121 3123 3124 3124 3126 3129 3131 3133 3135 3136 3137 3139 3139 3139 3140 3141 3142 3143 3144 3144 3145 3146 3147 3149 3151 3153 3155 3156 3158 3159 3161 3164 3166 3168 3170 3172 3174 3175 3176 3178 3179 3180 3181 3181
3099 3101 3102 3101 3103 3107 3111 3113 3115 3116 3115 3116 3119 3119 3118 3117 3116 3116 3118 3117 3117 3120 3123 3125 3126 3128 3130 3132 3133 3134 3135 3137 3136 3137 3139 3140 3141 3141 3142 3143 3143 3145 3146 3148 3150 3152 3153 3155 3157 3159 3162 3163 3165 3168 3169 3171 3172 3174 3175 3176 3177 3178 3179
3094 3093 3093 3094 3096 3101 3104 3107 3108 3109 3110 3113 3115 3114 3115 3116 3113 3113 3113 3110 3111 3116 3120 3122 3124 3126 3128 3130 3131 3132 3133 3135 3135 3135 3136 3137 3139 3139 3140 3141 3141 3142 3143 3145 3147 3149 3151 3153 3154 3157 3159 3161 3163 3165 3167 3168 3170 3171 3172 3173 3174 3176 3177
3088 3087 3088 3091 3095 3097 3099 3101 3103 3104 3106 3110 3110 3106 3109 3113 3112 3110 3110 3107 3108 3113 3115 3118 3121 3123 3125 3127 3129 3130 3131 3132 3133 3134 3134 3135 3136 3137 3138 3139 3139 3140 3141 3142 3144 3146 3148 3149 3150 3153 3156 3158 3160 3162 3164 3166 3167 3168 3170 3170 3172 3174 3176
3085 3086 3088 3090 3092 3095 3097 3097 3100 3103 3103 3105 3103 3101 3106 3109 3106 3108 3110 3106 3107 3112 3113 3115 3118 3120 3122 3124 3125 3127 3128 3130 3131 3132 3131 3132 3134 3134 3135 3136 3137 3137 3138 3139 3141 3143 3144 3146 3147 3151 3153 3155 3157 3159 3161 3163 3164 3166 3167 3168 3170 3173 3174
3084 3085 3087 3088 3090 3092 3093 3092 3095 3097 3097 3099 3099 3100 3107 3105 3100 3106 3107 3102 3105 3110 3111 3113 3116 3117 3120 3121 3122 3124 3125 3127 3129 3129 3129 3131 3132 3132 3133 3133 3134 3134 3134 3135 3137 3139 3141 3142 3144 3148 3150 3153 3155 3157 3158 3160 3161 3164 3165 3167 3168 3170 3173
3081 3082 3082 3083 3084 3087 3087 3087 3090 3091 3092 3097 3097 3100 3105 3099 3095 3102 3101 3096 3102 3108 3109 3111 3114 3115 3117 3118 3120 3121 3122 3123 3125 3126 3127 3129 3130 3130 3130 3130 3130 3130 3131 3132 3134 3136 3138 3140 3142 3145 3147 3150 3152 3154 3156 3157 3159 3161 3163 3165 3166 3168 3171
3074 3075 3074 3075 3078 3081 3083 3083 3085 3086 3088 3091 3092 3095 3096 3090 3091 3097 3094 3091 3100 3106 3107 3109 3111 3112 3114 3116 3118 3119 3119 3120 3121 3123 3124 3125 3127 3127 3127 3127 3127 3127 3128 3129 3132 3134 3136 3137 3140 3142 3145 3147 3149 3151 3153 3155 3157 3159 3162 3164 3165 3166 3168
3068 3070 3071 3074 3076 3077 3078 3080 3082 3083 3085 3087 3089 3089 3085 3084 3088 3092 3089 3092 3099 3101 3102 3106 3108 3109 3112 3114 3116 3116 3117 3117 3118 3120 3122 3123 3123 3124 3124 3124 3124 3124 3126 3128 3130 3132 3133 3135 3138 3140 3142 3144 3146 3148 3150 3153 3155 3157 3160 3162 3162 3163 3165
3067 3069 3071 3073 3074 3073 3074 3076 3078 3079 3081 3083 3084 3080 3079 3083 3086 3084 3087 3094 3096 3095 3099 3103 3104 3106 3108 3111 3113 3114 3115 3115 3115 3117 3118 3120 3121 3121 3122 3122 3121 3123 3125 3126 3128 3130 3131 3133 3135 3137 3139 3141 3143 3145 3148 3150 3153 3156 3158 3159 3159 3161 3163
3065 3068 3069 3070 3071 3071 3072 3073 3073 3075 3077 3078 3078 3075 3077 3082 3081 3079 3085 3090 3090 3093 3098 3099 3100 3103 3105 3107 3110 3111 3113 3114 3114 3113 3114 3116 3118 3118 3119 3119 3120 3121 3123 3124 3126 3127 3129 3131 3132 3134 3136 3138 3140 3142 3145 3148 3151 3153 3155 3155 3157 3159 3159
3063 3065 3065 3067 3067 3067 3069 3070 3070 3072 3073 3073 3074 3074 3076 3079 3077 3078 3084 3085 3085 3089 3094 3095 3098 3100 3102 3104 3106 3108 3110 3111 3111 3110 3110 3112 3114 3115 3116 3117 3118 3119 3121 3122 3124 3125 3127 3128 3130 3132 3134 3135 3137 3140 3143 3146 3148 3150 3151 3152 3153 3153 3152
3059 3060 3062 3063 3063 3063 3064 3065 3067 3068 3069 3069 3070 3070 3073 3075 3074 3077 3081 3080 3080 3085 3089 3091 3094 3097 3099 3101 3102 3104 3106 3108 3108 3106 3106 3108 3110 3111 3113 3115 3115 3117 3118 3120 3121 3122 3124 3126 3128 3130 3131 3133 3135 3138 3140 3142 3144 3146 3147 3148 3149 3148 3146
3054 3056 3058 3058 3059 3060 3059 3059 3061 3063 3064 3064 3065 3066 3068 3069 3070 3073 3075 3073 3074 3080 3086 3087 3089 3092 3094 3096 3098 3100 3102 3104 3104 3103 3103 3105 3105 3106 3109 3111 3112 3114 3115 3117 3119 3120 3122 3123 3125 3127 3129 3131 3133 3135 3137 3138 3140 3142 3143 3144 3144 3143 3142
3051 3053 3054 3054 3057 3055 3051 3051 3055 3058 3059 3060 3061 3062 3063 3064 3066 3068 3067 3067 3071 3078 3081 3081 3084 3086 3088 3090 3093 3096 3097 3099 3100 3099 3100 3101 3101 3102 3105 3107 3109 3110 3111 3113 3115 3117 3118 3120 3122 3124 3126 3127 3129 3131 3133 3134 3136 3138 3139 3139 3139 3139 3139
3050 3052 3052 3053 3053 3048 3044 3047 3052 3053 3054 3056 3057 3057 3058 3061 3062 3063 3063 3065 3069 3073 3074 3076 3078 3081 3083 3085 3087 3090 3092 3094 3095 3095 3097 3097 3096 3097 3100 3103 3105 3106 3108 3109 3111 3113 3115 3117 3119 3120 3122 3124 3126 3128 3129 3131 3132 3134 3135 3135 3135 3135 3136
3049 3050 3051 3051 3048 3044 3044 3047 3048 3049 3050 3052 3053 3053 3055 3057 3059 3060 3062 3064 3066 3068 3070 3072 3074 3076 3078 3080 3081 3084 3087 3088 3090 3091 3092 3093 3093 3092 3095 3098 3100 3102 3104 3107 3108 3110 3112 3113 3115 3117 3119 3121 3123 3124 3126 3127 3128 3129 3130 3130 3131 3132 3133
3047 3048 3049 3047 3044 3043 3045 3045 3045 3047 3048 3049 3050 3049 3049 3052 3055 3056 3059 3061 3063 3066 3067 3068 3069 3071 3073 3075 3076 3078 3081 3083 3085 3086 3087 3088 3089 3089 3091 3094 3096 3098 3100 3103 3104 3106 3108 3110 3111 3113 3116 3118 3119 3121 3122 3123 3124 3125 3126 3127 3127 3128 3129
3044 3044 3044 3044 3043 3042 3043 3043 3043 3044 3045 3045 3046 3044 3045 3048 3051 3052 3055 3058 3060 3063 3064 3064 3065 3067 3069 3070 3071 3073 3075 3077 3080 3081 3083 3084 3085 3086 3087 3090 3093 3095 3096 3098 3100 3102 3105 3106 3108 3110 3112 3114 3115 3117 3118 3120 3121 3122 3123 3123 3124 3124 3124
3042 3042 3042 3043 3042 3039 3039 3040 3040 3041 3042 3042 3043 3043 3042 3044 3047 3048 3051 3054 3056 3059 3060 3060 3062 3064 3065 3065 3066 3068 3070 3073 3075 3077 3078 3079 3081 3083 3084 3086 3089 3092 3093 3094 3097 3099 3101 3103 3104 3106 3108 3110 3112 3113 3114 3116 3117 3119 3120 3120 3119 3119 3120
3038 3039 3039 3040 3040 3038 3038 3038 3038 3039 3040 3040 3042 3041 3038 3039 3043 3045 3047 3050 3052 3054 3055 3056 3058 3060 3061 3062 3062 3063 3065 3069 3071 3073 3074 3075 3077 3079 3080 3082 3085 3088 3089 3091 3093 3095 3097 3099 3100 3102 3104 3105 3107 3108 3109 3111 3113 3115 3116 3116 3115 3115 3116
3034 3035 3035 3037 3038 3038 3037 3037 3037 3038 3038 3039 3040 3036 3033 3035 3038 3040 3043 3046 3047 3049 3052 3053 3054 3055 3057 3059 3059 3059 3062 3065 3066 3068 3070 3071 3073 3075 3076 3078 3082 3084 3085 3087 3089 3091 3093 3094 3097 3098 3100 3101 3102 3104 3105 3107 3109 3110 3111 3112 3112 3112 3113
3031 3032 3032 3033 3035 3035 3035 3036 3036 3036 3037 3037 3035 3032 3031 3033 3034 3035 3039 3042 3043 3046 3048 3049 3049 3051 3053 3055 3055 3056 3059 3060 3061 3063 3065 3066 3069 3071 3072 3074 3078 3080 3081 3083 3085 3086 3089 3091 3093 3095 3096 3097 3098 3100 3102 3104 3105 3105 3107 3109 3109 3109 3110
3028 3029 3029 3031 3031 3031 3032 3035 3035 3035 3035 3034 3030 3029 3030 3031 3031 3032 3035 3037 3039 3042 3043 3044 3046 3048 3050 3052 3052 3053 3055 3056 3057 3058 3060 3062 3064 3066 3069 3071 3074 3076 3078 3080 3081 3083 3085 3087 3089 3090 3092 3092 3094 3096 3099 3101 3102 3102 3104 3105 3106 3106 3106
3024 3026 3027 3027 3026 3026 3030 3033 3033 3033 3032 3030 3027 3027 3028 3028 3029 3030 3030 3032 3034 3036 3038 3040 3043 3044 3046 3047 3048 3049 3051 3052 3053 3055 3057 3059 3061 3063 3066 3068 3070 3072 3074 3076 3078 3080 3081 3083 3085 3086 3087 3088 3091 3094 3097 3099 3100 3100 3100 3101 3102 3103 3104
3019 3020 3020 3020 3021 3024 3028 3030 3030 3030 3028 3027 3027 3027 3026 3026 3027 3027 3027 3028 3030 3032 3034 3037 3039 3040 3042 3043 3044 3046 3048 3049 3051 3052 3054 3056 3058 3061 3063 3065 3067 3069 3071 3073 3075 3077 3078 3081 3083 3085 3086 3087 3089 3092 3095 3098 3099 3099 3098 3098 3100 3101 3102
3013 3015 3015 3016 3018 3022 3025 3027 3027 3027 3026 3025 3026 3026 3025 3025 3026 3026 3026 3026 3027 3029 3031 3033 3034 3036 3038 3040 3041 3043 3044 3046 3048 3049 3051 3053 3055 3058 3060 3062 3064 3067 3069 3071 3074 3075 3078 3080 3082 3083 3084 3085 3086 3088 3091 3094 3097 3098 3098 3098 3098 3098 3098
3010 3013 3013 3014 3016 3020 3023 3025 3024 3023 3023 3024 3024 3024 3024 3025 3026 3026 3026 3027 3028 3030 3031 3031 3031 3033 3035 3037 3040 3041 3043 3045 3046 3048 3049 3051 3054 3056 3058 3060 3062 3065 3068 3070 3072 3074 3077 3079 3080 3082 3083 3084 3085 3086 3088 3090 3094 3096 3096 3095 3095 3094 3094
3009 3011 3010 3012 3015 3018 3022 3024 3023 3022 3022 3023 3024 3025 3025 3026 3026 3026 3027 3029 3030 3032 3033 3032 3031 3032 3034 3036 3038 3041 3043 3045 3047 3048 3050 3052 3054 3056 3058 3060 3061 3064 3066 3069 3071 3073 3076 3078 3080 3081 3082 3084 3085 3087 3087 3088 3091 3092 3092 3090 3089 3089 3089
3008 3009 3008 3010 3014 3017 3019 3021 3022 3021 3021 3021 3022 3024 3026 3027 3027 3028 3029 3031 3033 3034 3034 3033 3032 3033 3034 3036 3039 3042 3045 3046 3048 3049 3051 3052 3054 3056 3058 3060 3061 3063 3066 3068 3071 3073 3075 3078 3079 3081 3082 3083 3083 3084 3085 3085 3086 3086 3086 3085 3085 3085 3085
3006 3006 3006 3009 3014 3018 3019 3019 3019 3020 3020 3021 3021 3022 3024 3026 3028 3030 3031 3033 3034 3034 3034 3034 3034 3035 3036 3037 3040 3044 3046 3048 3049 3050 3051 3053 3054 3056 3058 3059 3061 3064 3066 3068 3070 3072 3074 3076 3078 3078 3079 3080 3080 3080 3080 3080 3080 3081 3080 3080 3081 3081 3082
3004 3004 3005 3008 3013 3018 3019 3019 3019 3018 3019 3020 3021 3022 3023 3025 3028 3030 3033 3034 3035 3035 3035 3035 3037 3038 3039 3039 3041 3044 3048 3050 3050 3051 3052 3053 3054 3056 3057 3058 3061 3063 3065 3066 3068 3070 3072 3074 3075 3075 3076 3076 3076 3076 3076 3076 3076 3076 3076 3076 3077 3077 3078
3003 3004 3006 3008 3012 3016 3018 3018 3018 3018 3018 3019 3020 3021 3022 3024 3026 3029 3032 3034 3035 3036 3037 3038 3040 3041 3041 3041 3042 3045 3049 3051 3052 3052 3052 3053 3054 3055 3056 3058 3060 3062 3063 3064 3066 3068 3069 3070 3071 3072 3072 3072 3072 3072 3072 3073 3072 3072 3072 3073 3073 3074 3075
3002 3004 3006 3008 3011 3014 3016 3017 3018 3018 3017 3017 3019 3020 3022 3023 3025 3028 3032 3034 3036 3037 3038 3040 3041 3041 3041 3041 3043 3046 3048 3050 3052 3052 3052 3053 3054 3055 3056 3057 3058 3060 3061 3063 3064 3064 3065 3066 3067 3068 3068 3069 3069 3069 3069 3069 3068 3068 3069 3069 3070 3070 3071
3001 3002 3004 3007 3009 3012 3014 3016 3018 3018 3016 3016 3018 3021 3023 3024 3026 3029 3031 3034 3035 3036 3037 3038 3038 3039 3039 3040 3042 3044 3047 3049 3050 3050 3051 3052 3052 3053 3054 3055 3056 3057 3059 3060 3061 3061 3062 3063 3063 3064 3064 3065 3065 3065 3065 3065 3065 3065 3065 3066 3066 3067 3067
Wind_Speed
27 27 32 35 31 26 26 33 38 35 30 29 27 22 19 18 15 16 19 19 20 22 21 22 23 21 19 19 19 20 22 21 16 14 16 18 18 18 20 22 24 28 30 29 28 29 29 29 28 27 26 26 28 30 29 28 28 28 26 25 23 22 22
30 27 27 33 35 28 25 31 36 34 27 27 29 22 17 15 12 15 20 19 19 20 19 21 24 25 25 23 21 20 20 22 20 15 19 22 21 18 18 20 22 24 26 26 27 28 29 30 29 28 25 24 25 28 29 29 29 29 27 25 24 24 23
27 27 26 30 35 35 30 26 28 32 27 25 28 21 14 15 11 11 19 21 21 22 19 16 18 20 22 22 21 19 18 20 19 15 20 22 21 19 17 18 20 22 24 25 27 29 30 31 31 29 26 24 24 25 26 27 28 29 27 26 26 26 25
26 29 31 32 34 37 37 28 25 32 32 28 30 27 19 16 12 10 16 19 20 23 22 19 17 17 18 18 19 18 16 17 17 16 18 18 18 20 19 19 20 23 24 25 28 29 30 32 32 30 27 24 24 24 24 25 26 27 27 28 28 27 26
26 31 35 38 35 35 38 37 31 31 33 29 29 32 31 25 14 10 12 13 18 22 22 24 24 22 21 20 20 20 18 17 17 18 19 18 17 18 18 17 19 22 23 24 26 28 31 33 34 32 29 26 25 24 24 25 26 27 28 29 28 27 27
27 31 32 36 37 34 34 37 36 34 31 28 24 25 33 35 26 19 15 12 17 19 16 19 23 23 23 22 21 22 22 20 18 20 22 19 18 19 18 17 17 19 22 24 25 27 31 34 36 34 31 28 26 25 25 25 27 28 29 30 28 25 25
22 25 25 28 33 36 35 33 35 37 34 32 28 22 27 35 32 30 27 19 20 21 13 12 17 20 21 20 19 20 21 20 19 19 21 19 18 19 19 19 19 21 24 26 27 28 30 32 35 35 33 31 28 27 27 27 28 28 29 30 29 26 24
18 20 23 25 27 32 37 36 35 37 38 38 37 30 28 33 32 31 26 20 22 23 13 10 13 14 15 16 18 20 22 23 22 22 21 20 20 21 23 23 22 25 29 30 30 29 28 30 32 33 34 33 30 28 29 30 30 29 28 29 28 27 25
14 17 19 23 26 28 34 37 36 37 38 38 39 36 32 33 36 36 26 20 26 27 18 15 16 13 10 12 15 19 24 26 26 26 25 22 21 22 23 25 25 27 31 32 30 29 28 29 30 30 32 33 31 30 31 32 32 29 28 27 26 25 24
13 14 17 22 27 27 29 33 35 37 39 39 38 37 33 33 36 39 36 30 31 33 27 25 25 23 20 17 14 15 19 22 22 24 25 22 20 20 20 23 27 29 31 29 29 29 28 27 27 27 28 29 31 32 32 33 32 29 27 25 25 26 25
22 19 20 21 23 26 28 31 34 36 38 39 39 37 37 37 34 36 41 38 33 34 32 28 27 27 26 25 21 17 17 19 19 22 23 23 21 20 20 22 25 28 29 28 29 29 28 27 25 25 26 27 29 31 32 33 32 29 26 25 27 28 24
30 26 23 22 22 25 26 28 32 35 36 38 42 43 42 39 32 31 38 38 37 39 36 30 27 23 22 25 28 26 24 22 22 24 26 27 25 23 22 22 25 28 28 28 29 27 27 27 25 24 25 27 28 29 30 32 31 28 25 25 26 25 23
31 30 28 27 26 25 25 26 29 32 35 36 40 44 43 40 36 33 32 33 37 42 41 37 33 26 22 23 25 29 29 26 27 29 29 29 29 26 23 23 27 30 28 27 27 25 25 25 24 24 25 26 27 27 28 28 28 27 25 25 25 23 24
28 30 30 31 31 31 29 29 29 30 34 37 38 40 40 41 43 41 35 32 34 37 39 42 41 36 32 29 26 28 30 30 31 31 29 29 29 28 25 25 29 30 26 25 25 25 26 25 24 25 25 26 26 25 25 25 25 26 26 27 26 24 26
25 29 33 33 33 34 32 33 33 32 33 35 38 39 38 39 42 42 40 39 37 34 32 36 39 38 37 36 33 30 30 32 32 32 31 31 30 28 26 27 30 31 29 26 24 25 27 26 26 27 27 27 27 25 25 25 25 26 28 28 27 27 29
21 25 30 33 34 35 36 36 35 34 35 35 36 37 36 37 39 38 41 44 43 36 31 32 35 36 36 37 36 33 32 34 36 35 34 31 30 27 25 27 31 34 33 28 24 25 27 28 28 29 29 29 29 28 27 27 27 28 28 28 29 30 31
17 16 20 27 30 30 33 36 36 35 36 36 36 36 35 34 35 35 38 41 39 34 32 34 36 36 36 38 39 37 35 35 38 38 34 31 31 30 27 28 31 35 38 32 27 28 31 31 31 31 31 32 31 30 29 28 28 28 28 28 29 30 29
14 12 14 18 19 20 25 31 33 34 36 37 36 38 37 34 33 32 31 30 29 29 30 32 32 32 34 38 41 40 38 37 38 39 36 33 35 35 32 29 29 35 40 36 31 32 34 33 33 34 33 33 32 31 30 29 29 29 28 28 29 29 29
14 13 13 13 14 19 24 25 27 31 35 36 37 37 38 36 35 34 31 27 24 23 24 25 26 28 31 34 37 39 39 39 40 40 37 35 36 36 34 31 28 32 38 36 34 36 37 34 34 35 34 34 33 32 32 32 32 31 30 30 30 30 31
14 14 14 13 13 19 24 24 25 27 28 31 34 36 37 37 36 35 34 32 28 24 23 24 25 26 26 27 31 36 39 40 42 41 39 37 37 36 35 31 28 30 34 36 38 40 39 37 36 35 35 35 35 34 34 35 35 35 33 32 32 32 32
13 13 15 14 15 19 24 24 22 22 24 27 30 33 34 34 35 36 34 33 31 28 28 31 29 26 25 26 29 35 38 40 41 42 41 41 38 37 36 32 29 32 35 38 41 41 40 39 37 36 36 36 35 35 35 36 36 36 36 35 34 33 32
12 10 10 10 12 15 18 18 18 20 24 28 29 31 32 30 31 34 35 34 32 31 33 36 31 27 28 29 29 35 40 40 41 43 44 43 39 37 38 35 31 34 38 39 39 39 40 40 39 38 37 35 35 36 36 37 37 37 36 35 34 32 30
18 14 9 8 11 12 10 11 16 19 22 26 27 29 33 33 31 32 33 34 35 35 36 36 32 30 31 29 29 35 38 39 40 42 43 44 40 37 39 38 35 36 38 35 33 36 41 41 40 40 38 37 37 39 39 39 39 38 36 35 32 29 27
22 19 14 11 13 15 13 14 16 16 17 20 22 21 25 32 35 35 34 33 33 33 32 32 31 32 31 29 30 34 35 34 35 35 38 42 40 38 39 40 38 38 37 32 30 37 42 42 42 42 40 39 40 41 41 41 40 38 36 33 29 26 24
23 22 19 15 13 16 18 19 19 19 17 17 19 20 20 24 28 32 33 32 31 30 29 31 34 34 32 31 32 34 33 32 31 31 34 36 36 36 38 39 38 38 36 31 32 39 43 43 42 42 42 41 41 40 40 40 39 38 36 32 27 22 19
22 21 20 15 12 15 19 20 21 21 17 14 17 21 22 21 21 25 31 33 32 31 31 33 35 33 31 31 33 34 33 32 32 32 33 34 33 34 35 35 34 35 34 33 35 40 44 44 43 43 42 40 38 37 36 36 37 37 35 30 24 18 15
20 18 15 10 9 12 17 18 18 15 13 16 17 19 21 20 19 23 31 35 35 35 34 34 32 31 30 31 33 33 32 31 31 30 30 30 29 30 30 29 29 30 33 36 39 42 43 43 42 42 41 37 34 33 32 32 32 32 31 27 22 19 20
21 18 17 15 16 17 18 22 23 19 18 21 19 16 17 18 19 25 32 35 35 33 33 33 32 30 30 29 28 27 26 25 26 25 24 24 25 26 28 29 31 33 35 39 41 42 41 40 39 39 38 37 36 33 30 28 26 25 25 26 27 28 29
29 25 23 23 23 21 23 27 29 25 22 24 20 15 15 19 22 26 30 32 32 32 33 34 33 31 29 27 27 28 27 27 28 28 30 30 31 32 33 34 35 36 36 37 38 38 37 37 37 37 36 35 36 33 29 24 22 22 24 26 28 30 31
34 28 26 24 19 19 23 21 17 17 19 20 19 16 18 21 24 27 29 31 32 33 34 34 32 31 31 33 33 33 32 33 33 33 33 34 34 35 36 37 37 37 36 36 36 36 35 34 33 33 33 31 30 30 29 26 24 24 25 24 25 26 29
27 23 25 24 17 14 13 13 16 19 19 18 19 22 26 28 30 32 33 33 34 35 35 35 35 36 38 39 39 38 37 37 37 36 35 34 35 35 36 36 35 35 34 34 33 32 31 30 29 29 30 29 27 28 29 27 25 24 23 23 25 27 30
21 20 23 22 16 15 22 26 25 26 29 30 29 29 29 29 31 33 34 34 33 34 35 36 37 39 39 40 40 38 37 36 36 36 35 34 33 33 32 31 29 29 29 27 26 25 24 23 23 23 23 24 24 24 24 23 22 22 24 26 28 29 30
21 23 23 21 19 23 27 25 24 28 29 29 30 30 27 25 25 26 27 27 27 29 31 31 33 36 38 38 37 35 32 31 32 33 32 31 29 28 27 25 23 22 22 21 21 21 20 19 19 19 19 20 21 21 21 21 23 26 28 29 29 29 27
22 25 24 23 23 25 24 20 22 27 28 27 28 28 27 26 24 21 20 20 20 21 22 22 23 26 29 31 31 29 26 25 25 26 26 26 25 23 22 22 21 20 21 21 21 20 20 19 19 19 20 21 22 23 25 27 29 30 31 30 27 25 22
20 24 24 24 27 29 25 17 16 20 24 26 27 27 27 27 24 21 20 18 16 18 18 17 16 17 18 20 21 20 18 17 18 19 20 21 22 20 19 20 20 20 21 21 21 20 20 20 20 21 22 22 24 26 28 30 31 31 29 27 25 23 21
21 25 28 29 32 31 24 14 10 13 19 22 24 24 22 20 18 18 17 15 13 14 15 14 13 13 14 14 15 15 15 16 16 17 18 19 19 18 17 18 19 20 22 23 23 22 21 21 22 22 22 23 25 27 29 29 29 28 27 25 23 22 21
22 29 34 35 35 30 22 16 16 14 14 14 13 12 11 10 9 9 9 9 9 10 11 11 11 12 12 12 13 13 14 14 15 16 16 16 17 17 17 17 17 18 20 22 23 22 22 22 22 22 23 24 26 27 27 26 25 24 23 22 22 21 21
Wind_Direction
207 205 204 202 203 205 204 208 215 220 219 224 232 234 237 241 239 229 217 218 232 237 244 245 242 245 242 238 241 244 255 266 260 240 231 231 229 223 221 226 227 227 230 233 233 232 232 228 222 218 216 216 217 215 214 214 214 215 216 215 214 212 210
207 204 202 203 208 209 204 208 214 216 219 228 233 232 229 230 236 234 225 224 231 231 237 242 239 239 241 239 242 245 250 263 268 245 225 230 235 232 227 225 226 225 226 229 231 232 234 231 226 222 218 215 216 216 216 217 218 220 221 220 219 219 218
203 198 201 206 210 212 211 213 212 209 212 220 224 227 229 225 227 235 232 232 234 232 232 231 226 228 231 231 235 238 237 253 266 243 222 228 234 237 237 227 222 220 219 222 225 229 232 231 228 224 219 216 215 216 217 218 221 223 224 224 224 223 222
203 199 204 208 207 208 213 218 215 213 217 219 218 221 229 234 232 231 234 234 231 232 235 230 223 222 224 224 229 230 228 244 258 245 231 231 232 238 243 236 228 222 219 219 220 225 230 231 229 224 218 214 213 215 216 217 220 221 222 224 224 224 225
202 203 205 209 207 202 207 214 215 215 217 219 222 223 224 231 239 235 236 236 229 229 233 232 231 233 234 235 235 234 234 241 250 251 245 237 236 244 247 243 237 228 221 218 217 221 226 230 231 224 217 213 211 212 215 217 220 221 221 223 224 225 227
204 210 208 210 212 208 206 209 213 215 212 212 221 225 223 227 232 235 240 244 236 232 223 221 230 235 236 239 239 237 239 241 243 247 247 241 243 250 250 246 241 229 221 217 214 216 221 227 230 225 220 216 214 214 215 217 220 222 225 227 228 227 228
210 215 214 213 215 215 215 214 213 216 215 215 219 221 222 225 228 233 239 242 238 234 222 216 228 229 229 236 239 237 239 240 238 240 242 240 244 253 259 252 239 228 219 213 212 216 220 226 228 225 223 221 220 219 218 218 221 223 227 231 232 232 231
221 218 217 218 216 215 220 221 217 216 217 219 223 224 224 228 228 228 235 239 232 227 215 207 213 212 221 237 243 240 237 233 231 234 238 239 242 253 260 256 245 230 219 211 212 218 223 225 225 223 223 223 223 222 221 222 224 224 227 232 236 236 235
221 219 216 213 210 211 219 222 219 219 219 219 224 226 226 232 229 226 231 234 227 224 219 210 207 208 228 252 255 245 239 236 234 234 234 235 241 251 256 255 249 234 221 215 216 220 223 224 222 222 223 224 223 224 224 224 225 224 226 232 238 240 240
212 213 213 207 206 208 217 222 220 222 221 219 222 223 224 230 228 227 233 234 229 229 231 230 232 236 243 255 263 252 245 248 242 231 228 230 238 249 254 256 249 232 219 214 214 217 220 221 222 223 225 226 225 226 226 224 224 225 226 231 239 242 242
221 219 216 213 213 214 216 220 221 223 222 222 223 223 226 230 227 229 235 237 236 233 229 230 234 237 239 243 248 253 257 256 241 224 225 234 242 250 257 258 244 224 212 208 210 215 217 218 220 224 227 228 228 228 226 223 224 225 227 233 240 244 247
228 228 226 222 222 223 223 221 221 222 222 223 226 227 229 230 229 232 234 234 238 236 231 230 229 230 237 240 242 249 255 258 249 239 238 242 246 254 259 251 229 213 208 206 208 212 215 217 219 220 224 227 228 230 228 225 225 226 230 236 241 247 253
230 232 233 231 230 231 230 228 226 223 222 224 227 230 230 230 233 237 233 230 234 234 233 233 232 232 241 246 246 246 249 255 255 251 249 248 248 253 255 240 217 209 208 204 203 207 212 216 217 215 219 223 226 228 227 224 226 228 233 238 241 247 248
236 235 236 235 236 236 234 233 233 230 226 226 228 231 232 233 235 239 238 235 235 233 232 234 237 241 246 250 252 249 249 252 249 247 252 254 253 252 251 235 215 209 209 202 201 206 209 213 216 213 217 223 225 227 225 224 227 229 232 235 238 241 240
240 237 236 236 237 237 236 235 234 234 233 231 229 230 231 233 236 238 238 240 240 235 232 235 239 242 244 247 249 248 248 248 246 249 255 258 259 255 248 237 222 212 206 203 206 210 210 213 217 216 218 223 224 224 224 224 225 226 228 231 233 235 237
240 236 233 234 236 237 238 235 232 231 233 233 232 231 229 230 232 234 235 238 240 236 234 235 238 239 240 242 244 245 247 247 247 251 253 255 260 255 242 236 228 214 205 208 216 215 211 214 218 219 220 222 221 221 222 223 223 223 225 228 228 231 237
240 239 233 233 235 237 236 233 230 230 230 232 234 233 232 230 230 231 233 235 237 235 234 235 236 237 238 238 239 241 244 245 244 246 249 253 257 254 243 235 229 216 208 213 220 216 211 212 215 217 219 220 220 221 222 223 223 221 222 224 227 232 239
241 242 241 240 240 238 235 231 229 229 229 231 232 232 232 230 229 232 235 236 235 232 230 229 230 233 236 237 237 237 238 240 241 242 246 250 252 254 250 240 229 218 212 214 220 217 212 211 213 215 217 217 218 220 221 222 221 220 222 225 229 236 243
237 240 239 240 239 237 237 236 233 231 230 231 234 235 233 230 230 233 235 236 233 227 223 223 225 229 232 233 234 234 233 236 239 241 245 246 247 252 253 243 227 217 215 219 224 221 214 212 213 214 215 216 217 220 223 224 223 222 224 228 233 240 246
233 237 232 236 247 245 241 242 240 236 232 232 235 237 235 232 231 232 233 233 232 230 229 228 225 225 228 229 228 227 228 231 235 239 243 244 244 250 254 246 226 215 218 224 227 225 218 214 214 215 216 218 220 222 225 227 227 227 228 234 240 246 251
225 235 238 248 262 256 246 243 240 234 231 232 234 237 237 234 231 231 231 230 230 231 234 235 232 232 238 239 230 223 223 227 231 236 242 244 245 248 253 250 231 219 221 224 224 221 217 216 217 217 218 221 224 225 227 228 229 230 233 240 247 252 258
216 236 251 254 261 256 243 234 229 226 228 232 234 239 241 237 231 229 229 230 230 231 235 239 241 241 245 247 237 225 225 229 232 236 241 244 245 247 252 252 239 227 227 229 226 219 214 216 218 218 220 224 227 229 229 230 232 234 239 245 250 255 260
219 225 234 240 252 257 244 229 233 233 232 232 232 237 240 237 234 231 230 231 233 233 235 239 241 240 242 245 240 231 228 229 233 237 241 243 246 248 251 250 243 236 238 242 234 220 214 216 218 220 221 224 227 229 228 230 234 238 242 248 251 254 257
218 220 227 239 252 258 263 272 272 265 255 243 234 233 239 238 237 236 235 235 235 232 232 235 236 237 237 238 237 236 233 233 236 239 240 242 244 247 248 246 243 243 247 248 234 218 214 216 219 221 222 224 228 231 230 231 234 237 243 248 249 251 253
215 218 226 238 252 259 265 277 286 285 276 255 236 233 239 237 233 233 234 235 236 234 232 232 233 235 236 237 239 241 241 242 243 241 240 241 241 241 243 244 244 245 245 241 226 214 211 214 218 221 224 226 229 229 229 231 234 238 243 246 245 248 254
213 215 224 240 256 263 266 276 286 285 274 252 236 235 238 238 233 230 229 229 232 233 231 230 232 234 237 240 243 246 247 246 243 239 237 239 238 236 239 243 243 240 236 230 222 215 212 214 218 220 221 221 221 222 224 228 234 239 242 242 241 250 263
202 205 215 231 244 256 267 277 286 282 255 239 240 238 238 240 234 225 222 222 223 226 225 224 226 229 234 239 243 246 246 243 240 237 235 234 233 231 232 231 228 224 219 215 211 208 209 211 214 215 214 211 210 214 221 227 231 234 235 235 241 252 265
198 199 202 215 229 245 265 276 279 273 246 233 236 238 235 230 218 210 211 212 214 216 216 215 216 220 226 228 227 227 225 222 219 216 211 206 206 208 208 205 202 203 204 203 202 202 204 206 208 210 212 213 216 220 226 232 234 235 236 241 250 256 262
210 209 211 219 226 242 266 278 276 266 244 233 235 235 224 214 204 199 198 198 198 199 202 206 208 208 206 198 192 193 197 198 196 194 190 188 189 191 192 190 188 189 192 195 197 198 200 202 203 205 208 213 216 219 225 235 246 253 255 256 258 262 269
216 216 222 224 229 251 267 265 249 229 221 226 228 215 197 190 185 182 180 178 176 177 182 188 189 184 178 172 170 174 179 181 182 183 184 185 185 184 185 184 184 184 186 190 193 195 196 199 203 207 210 213 217 222 228 241 256 264 265 265 268 277 288
214 210 216 222 236 254 237 188 163 163 163 165 170 167 161 159 158 158 156 153 152 155 160 164 166 164 162 161 160 161 166 169 170 172 175 177 178 178 178 179 182 184 186 189 192 195 198 203 210 216 220 225 231 236 240 247 255 262 267 274 283 294 301
204 201 208 216 218 197 168 151 143 143 141 139 142 143 141 141 144 145 144 142 143 147 148 151 155 158 159 161 160 158 160 163 165 167 170 171 173 176 178 179 182 184 186 189 195 200 206 214 223 230 235 239 244 247 247 251 259 268 275 282 290 298 302
203 203 203 204 194 172 157 150 147 146 144 141 141 139 136 136 137 141 142 142 143 146 144 146 153 157 159 162 164 163 162 163 164 166 169 170 171 174 177 181 185 188 193 199 205 211 219 230 239 246 251 256 261 264 265 268 273 276 279 284 290 297 296
206 204 198 197 190 172 157 151 149 147 145 144 143 142 142 143 142 144 147 147 147 147 143 141 149 156 159 162 165 168 171 172 171 171 173 176 178 181 185 190 194 198 203 209 216 223 232 241 250 259 264 268 271 273 275 277 278 279 281 285 289 292 285
200 201 196 196 193 180 168 160 152 145 145 147 149 147 145 144 144 148 155 159 161 163 161 157 158 163 163 163 169 176 181 185 187 187 188 189 192 196 201 206 210 213 218 225 233 240 244 249 258 266 270 271 272 273 274 276 279 281 283 284 285 285 276
191 194 194 195 193 185 177 178 177 156 145 146 151 151 148 148 148 151 159 169 173 174 177 180 180 179 178 179 186 194 200 205 208 207 208 211 213 217 225 231 234 236 239 243 247 250 254 261 268 272 273 274 274 275 277 280 282 284 284 283 281 278 267
186 189 190 189 190 191 197 220 227 199 160 146 150 154 155 161 168 172 182 193 192 185 186 188 187 186 186 191 198 206 212 219 223 223 225 229 232 237 241 244 246 248 249 250 252 256 263 269 274 276 278 280 281 282 283 283 282 281 278 275 271 265 253